www.pogodaiklimat.ru

Погода и климат >> Архив погоды >> Россия >> Чукотка >> Баимка


ПОГОДА в Баимке

  • Прогноз погоды в Баимке
  • Монитор погоды в Баимке

АРХИВ ПОГОДЫ в Баимке

Время (UTC), дата Ветер
(напр.,м/с)
 
Видим.   Явления Облачность Т
(С)
Тd
(С)
f
(%)
Тe
(С)
Тes
(С)
Комфортность P
(гПа)
Po
(гПа)
Тmin
(С)
Tmax
(С)
R
(мм)
R24
(мм)
S
(см)
06 13.02 штиль 0
{2}
20 км 3/0
[Ci fib]
-45.2 -48.9 66 -45 -45 опасность
обморожения
1028.5 985.4
09 13.02 штиль 0
{1}
20 км 3/0
[Ci fib]
-47.6 -52.4 57 -48 -48 опасность
обморожения
1030.9 987.1 -40.2
12 13.02 ЮВ 1
{2}
20 км ясно -49.5 -53.5 63 -56 -56 опасность
обморожения
1032.4 988.2
15 13.02 ЮВ 1
{2}
20 км ясно -50.4 -54.8 59 -57 -57 опасность
обморожения
1031.7 987.5
18 13.02 штиль 0
{2}
20 км ясно -50.6 -54.8 61 -51 -51 опасность
обморожения
1030.4 986.2
21 13.02 штиль 0
{2}
20 км ясно -50.6 -54.8 61 -51 -51 опасность
обморожения
1028.9 984.6 -50.8 55
00 14.02 штиль 0
{1}
20 км ясно -43.4 -48.2 59 -43 -43 опасность
обморожения
1025.6 983.0
03 14.02 штиль 0
{2}
20 км 1/0
[Ci fib]
-38.7 -43.4 61 -39 -38 опасность
обморожения
1022.5 980.7
06 14.02 штиль 0
{1}
20 км 9/0
[Ci fib]
-43.3 -47.4 64 -43 -43 опасность
обморожения
1021.0 978.6
09 14.02 ЮВ 1
{2}
20 км 5/0
[Ci fib]
-46.5 -51.4 57 -52 -52 опасность
обморожения
1019.6 976.5 -37.8
12 14.02 ЮВ 1
{2}
20 км 8/0
[Ac trans Ci fib]
-44.2 -48.2 64 -50 -50 опасность
обморожения
1016.5 974.1
15 14.02 штиль 0
{2}
20 км 9/0
[Ac trans Ci fib]
-42.7 -46.8 64 -43 -43 опасность
обморожения
1013.9 971.7
18 14.02 штиль 0
{2}
20 км 10/0
[Ac trans Ci fib]
-37.5 -41.8 64 -38 -38 опасность
обморожения
1010.4 969.3
21 14.02 СЗ 1
{1}
20 км 10/0
[As trans]
-33.9 -38.2 65 -38 -38 опасность
обморожения
1007.9 967.6 -46.6 55
00 15.02 СВ 1
{1}
20 км 10/0
[Ac trans Ci fib]
-32.5 -36.9 65 -37 -37 опасность
обморожения
1006.2 966.1
03 15.02 С 1
{2}
4000 м слаб. снег 10/0
[As op]
-30.6 -35.1 65 -35 -35 опасность
обморожения
1004.5 964.8
06 15.02 С 1
{3}
20 км {снег} 8/0
[Ac trans Ci fib]
-32.3 -35.9 70 -37 -37 опасность
обморожения
1004.3 964.5
09 15.02 штиль 0
{2}
20 км 10/0
[Ac trans Ci fib]
-35.9 -39.3 71 -36 -36 опасность
обморожения
1004.6 964.1 -30.1 1
12 15.02 штиль 0
{2}
20 км 10/0
[Ac trans Ci fib]
-34.5 -38.1 70 -35 -35 опасность
обморожения
1004.1 963.7
15 15.02 СЗ 1
{2}
20 км 10/8 600 м
[Sc Ac und]
-32.4 -36.9 64 -37 -37 опасность
обморожения
1002.5 962.7
18 15.02 СЗ 1
{2}
4000 м слаб. снег 10/6 600 м
[Sc As op]
-32.8 -36.4 70 -37 -37 опасность
обморожения
1002.0 962.1
21 15.02 СЗ 1
{2}
20 км в посл. час снег 10/9 600 м
[Sc As op]
-31.9 -35.7 69 -36 -36 опасность
обморожения
1001.8 962.1 -38.3 0.5 56
00 16.02 С 2
{3}
2000 м слаб. ливневой снег 9/8 600 м
[Cb cap Ac trans]
-30.1 -34.6 65 -38 -37 опасность
обморожения
1000.3 960.9
03 16.02 С 3
{4}
20 км {ливн. осадки} 9/6 600 м
[Cb cap Ac trans]
-29.6 -34.0 65 -39 -39 опасность
обморожения
998.9 959.5
06 16.02 С 3
{4}
2000 м слаб. ливневой снег 9/9 600 м
[Cb cap]
-29.8 -33.5 70 -39 -39 опасность
обморожения
998.0 958.7
09 16.02 С 3
{4}
20 км в посл. час ливневой снег 9/5 600 м
[Cb cap Ac trans]
-30.0 -34.5 65 -40 -40 опасность
обморожения
997.3 958.0 -29.3 0.8
12 16.02 С 1
{4}
4000 м слаб. снег 10/0
[As op]
-29.6 -33.3 70 -34 -34 опасность
обморожения
996.4 957.1
15 16.02 С 2
{6}
4000 м слаб. снег 10/0
[As op]
-30.3 -34.1 69 -38 -38 опасность
обморожения
996.2 956.9
18 16.02 С 4
{6}
4000 м слаб. снег 10/0
[As op]
-30.3 -34.9 64 -42 -42 опасность
обморожения
996.5 957.2
21 16.02 С 3
{7}
20 км {снег} 10/0
[As op]
-30.8 -35.3 65 -41 -41 опасность
обморожения
997.5 958.1 -31.4 3 58
00 17.02 С 2
{6}
20 км {снег} 10/0
[As op]
-29.2 -34.5 60 -37 -36 опасность
обморожения
998.7 959.5
03 17.02 С 2
{6}
20 км 10/0
[As op]
-28.4 -33.8 60 -36 -36 опасность
обморожения
999.6 960.5
06 17.02 С 2
{4}
20 км 10/0
[As op]
-28.2 -32.8 65 -35 -35 опасность
обморожения
1001.3 962.2
09 17.02 С 3
{5}
20 км 8/0
[Ac trans Ci fib]
-28.9 -33.5 64 -38 -38 опасность
обморожения
1003.4 964.0 -28.1
12 17.02 штиль 0
{5}
20 км 10/0
[Ac und]
-28.8 -32.5 70 -29 -29 1005.1 965.6
15 17.02 штиль 0
{1}
4000 м слаб. снег 10/0
[As op]
-28.9 -32.7 70 -29 -29 1006.3 966.8
18 17.02 ЮВ 2
{3}
20 км в посл. час снег 8/0
[Ac trans Ci fib]
-31.6 -35.2 70 -39 -39 опасность
обморожения
1007.9 967.9
21 17.02 ЮВ 2
{3}
20 км 10/0
[Ac trans Ci fib]
-31.3 -35.0 70 -39 -39 опасность
обморожения
1009.0 969.1 -32.2 0.5 58
00 18.02 штиль 0
{3}
20 км 10/3 600 м
[Sc Ac trans Cs]
-29.6 -34.0 65 -30 -29 1009.5 969.7 -32.4
03 18.02 СВ 1
{1}
20 км 10/0
[Ac trans Cs]
-27.1 -32.5 60 -31 -31 опасность
обморожения
1009.3 970.0
06 18.02 штиль 0
{1}
20 км 10/0
[Ac trans Cs]
-32.0 -36.4 65 -32 -32 опасность
обморожения
1011.5 971.4
09 18.02 ЮВ 2
{2}
20 км 10/0
[Ac trans Cs]
-33.8 -37.5 69 -42 -42 опасность
обморожения
1013.3 972.7 -26.3
12 18.02 ЮВ 2
{4}
20 км 4/0
[Ac trans]
-37.5 -41.1 69 -46 -46 опасность
обморожения
1015.6 974.3
15 18.02 ЮВ 2
{4}
20 км 3/0
[Ac trans]
-37.9 -42.3 63 -47 -47 опасность
обморожения
1016.2 975.1
18 18.02 ЮВ 2
{4}
20 км 10/0
[Ac trans Cs]
-35.1 -39.4 65 -43 -43 опасность
обморожения
1016.8 975.9
21 18.02 штиль 0
{2}
20 км 10/0
[Ac trans Ci fib]
-31.3 -35.0 70 -31 -31 опасность
обморожения
1016.8 976.6 -39.1 58
00 19.02 С 1
{1}
20 км 8/0
[Ac trans]
-29.0 -33.5 65 -33 -32 опасность
обморожения
1016.8 997.0
03 19.02 С 1
{2}
20 км 8/0
[Ac trans Ci fib]
-28.2 -32.8 65 -32 -32 опасность
обморожения
1016.7 977.0
06 19.02 С 2
{3}
4000 м слаб. снег 10/0
[As op]
-28.3 -32.0 70 -36 -36 опасность
обморожения
1017.9 978.1
09 19.02 С 2
{3}
20 км {снег} 10/0
[As op]
-29.0 -33.5 65 -36 -36 опасность
обморожения
1019.4 979.4 -27.9 0.3
12 19.02 штиль 0
{3}
20 км {снег} 10/0
[As op]
-32.6 -36.1 71 -33 -33 опасность
обморожения
1021.3 980.5
15 19.02 штиль 0
{2}
20 км 10/0
[Ac trans Cs]
-36.9 -40.4 70 -37 -37 опасность
обморожения
1022.6 981.1
18 19.02 ЮВ 2
{4}
20 км 10/0
[Ac trans Cs]
-38.0 -42.3 64 -47 -47 опасность
обморожения
1022.9 981.3
21 19.02 ЮВ 2
{3}
20 км 10/0
[Ac trans Cs]
-42.0 -46.1 64 -51 -51 опасность
обморожения
1023.6 981.2 -42.0 58
00 20.02 ЮВ 1
{4}
20 км 10/0
[Ac trans Cs]
-36.9 -41.1 65 -42 -41 опасность
обморожения
1022.4 980.9 -42.8
03 20.02 штиль 0
{2}
4000 м слаб. снег 10/0
[As op]
-28.8 -33.3 65 -29 -29 1020.6 980.3

 

Местоположение метеостанции Баимка (Чукотка, Россия): широта 66.53 долгота 164.20 высота над уровнем моря 287 м.

В архиве по умолчанию представлена погода в Баимке за последнюю неделю. Архивные данные за месяц целиком и за предыдущие месяцы, начиная с января 2011 года, Вы можете получить, выбрав интересующий диапазон дат из раскрывающегося списка и нажав кнопку "Ввод!".


*Определитесь, кто Вы:
робот инопланетянин человек

Внимание! Время в таблицах - всемирное. Для получения местного времени необходимо прибавить поправку, которая равна 12 ч.

Смотрите также архив погоды в соседних городах и на ближайших метеорологических станциях:

Погода в Островном (Чукотка, Россия) (177 км)
Погода в Илирнее (Чукотка, Россия) (180 км)
Погода в Билибино (Чукотка, Россия) (194 км)
Погода в Омолоне (Чукотка, Россия) (222 км)
Погода в Константиновской (Чукотка, Россия) (224 км)
Погода в Анюйске (Чукотка, Россия) (233 км)
Погода в Верхне-Пенжино (Камчатский край, Россия) (257 км)
Погода в Черском (Якутия, Россия) (274 км)
Погода в Кегали (Магаданская область, Россия) (294 км)
Погода в Колымской (Якутия, Россия) (340 км)

Пояснения к столбцам:

Ветер - указаны скорость ветра в м/с - средняя за 10 мин, порывы в срок и между сроками (в фигурных скобках) и направление, откуда дует ветер: С - северный, СВ - северо-восточный, В - восточный, ЮВ - юго-восточный, Ю - южный, ЮЗ - юго-западный, З - западный, СЗ - северо-западный.
Видимость - горизонтальная дальность видимости в метрах или километрах. При видимости от 1 до 10 км при отсутствии осадков обычно наблюдается дымка, при ухудшении видимости до 1 км и менее - туман. В сухую погоду видимость может ухудшаться дымом, пылью или мглою.
Явления - указаны атмосферные явления, наблюдавшиеся в срок или в последний час перед сроком; фигурными скобками обозначены явления, наблюдавшиеся между сроками (за 1-3 часа до срока); квадратными скобками обозначены град или гололедные отложения с указанием их диаметра в мм.
Облачность - указаны через наклонную черту общая и нижняя облачность в баллах и высота нижней границы облаков в метрах; квадратными скобками обозначены формы облаков: Ci - перистые, Cs - перисто-слоистые, Cc - перисто-кучевые, Ac - высококучевые, As - высокослоистые, Sc - слоисто-кучевые, Ns - слоисто-дождевые, Cu - кучевые, Cb - кучево-дождевые. Подробнее классификацию облаков см. в Атласе облаков (PDF).
T - Температура воздуха - температура, измеренная на высоте 2 м над землей.
Td - Температура точки росы - температура, при понижении до которой содержащийся в воздухе водяной пар достигнет насыщения.
f - Относительная влажность воздуха - влажноcть воздуха, измеренная на высоте 2 м над землей.
Te - Эффективная температура - температура, которую ощущает одетый по сезону человек в тени. Характеристика душности погоды. При расчете учитывается влияние влажности воздуха и скорости ветра на теплоощущения человека.
Tes - Эффективная температура на солнце - температура, которую ощущает человек, с поправкой на солнечный нагрев. Характеристика знойности погоды. Зависит от высоты солнца над горизонтом, облачности и скорости ветра. Ночью, в пасмурную погоду, а также при ветре 12 м/с и более поправка равна нулю.
P - Атмосферное давление - приведенное к уровню моря атмосферное давление.
Po - Атмосферное давление - измеренное на уровне метеостанции атмосферное давление.
Tmin - Минимальная температура - минимум температуры воздуха на высоте 2 м над землей.
Tmax - Максимальная температура - максимум температуры воздуха на высоте 2 м над землей.
R - Количество осадков - Количество выпавших осадков за период времени, мм. При наведении курсора мыши на число - период времени, за который выпало указанное количество осадков.
R24 - Количество осадков - Количество выпавших осадков за 24 часа, мм.
S - Снежный покров - Высота снежного покрова, см. При наведении курсора мыши на число - состояние снежного покрова и степень покрытия местности в баллах.